TimeEST,TemperatureF,Dew PointF,Humidity,Sea Level PressureIn,VisibilityMPH,Wind Direction,Wind SpeedMPH,Gust SpeedMPH,PrecipitationIn,Events,Conditions,WindDirDegrees,DateUTC
12:55 AM,29.7,27.5,92,30.03,10.0,Calm,Calm,-,N/A,,Clear,0,2013-02-15 05:55:00
1:55 AM,28.9,27.3,94,30.03,10.0,Calm,Calm,-,N/A,,Clear,0,2013-02-15 06:55:00
2:55 AM,28.4,27.0,94,30.03,10.0,Calm,Calm,-,N/A,,Clear,0,2013-02-15 07:55:00
3:55 AM,28.2,27.0,95,30.02,10.0,Calm,Calm,-,N/A,,Clear,0,2013-02-15 08:55:00
4:55 AM,28.2,27.0,95,30.03,10.0,Calm,Calm,-,N/A,,Clear,0,2013-02-15 09:55:00
5:13 AM,28.4,26.6,93,30.03,8.0,Calm,Calm,-,N/A,,Clear,0,2013-02-15 10:13:00
5:22 AM,28.4,26.6,93,30.03,8.0,Calm,Calm,-,N/A,,Clear,0,2013-02-15 10:22:00
5:55 AM,28.0,26.8,95,30.04,10.0,Calm,Calm,-,N/A,,Clear,0,2013-02-15 10:55:00
6:55 AM,27.3,26.1,95,30.05,10.0,Calm,Calm,-,N/A,,Clear,0,2013-02-15 11:55:00
7:55 AM,29.8,27.9,92,30.05,10.0,Calm,Calm,-,N/A,,Clear,0,2013-02-15 12:55:00
8:55 AM,36.7,33.6,89,30.06,10.0,Calm,Calm,-,N/A,,Clear,0,2013-02-15 13:55:00
9:55 AM,45.3,34.2,65,30.06,9.0,Calm,Calm,-,N/A,,Clear,0,2013-02-15 14:55:00
10:55 AM,53.6,33.8,47,30.03,10.0,Variable,2.3,-,N/A,,Clear,0,2013-02-15 15:55:00
11:55 AM,56.5,34.0,43,30.02,10.0,Calm,Calm,-,N/A,,Clear,0,2013-02-15 16:55:00
12:55 PM,58.5,29.7,33,29.99,10.0,South,6.9,-,N/A,,Clear,190,2013-02-15 17:55:00
1:55 PM,60.1,30.9,33,29.95,10.0,Variable,3.5,-,N/A,,Clear,0,2013-02-15 18:55:00
2:55 PM,60.4,30.0,32,29.94,10.0,Variable,6.9,-,N/A,,Clear,0,2013-02-15 19:55:00
3:55 PM,59.0,29.5,33,29.92,10.0,Variable,3.5,-,N/A,,Scattered Clouds,0,2013-02-15 20:55:00
4:55 PM,59.0,30.4,34,29.91,10.0,Calm,Calm,-,N/A,,Partly Cloudy,0,2013-02-15 21:55:00
5:55 PM,51.6,36.7,57,29.92,10.0,NW,18.4,26.5,N/A,,Overcast,320,2013-02-15 22:55:00
6:55 PM,46.8,37.2,69,29.96,10.0,NW,10.4,-,N/A,,Overcast,310,2013-02-15 23:55:00
7:55 PM,44.1,35.1,71,30.00,10.0,NNW,10.4,25.3,N/A,,Overcast,330,2013-02-16 00:55:00
8:25 PM,42.8,35.6,76,30.01,10.0,NW,17.3,25.3,N/A,Rain,Light Rain,320,2013-02-16 01:25:00
8:30 PM,42.8,35.6,76,30.02,10.0,NW,15.0,25.3,N/A,Rain,Light Rain,310,2013-02-16 01:30:00
8:37 PM,42.8,35.6,76,30.02,10.0,NW,13.8,25.3,N/A,Rain,Light Rain,320,2013-02-16 01:37:00
8:39 PM,42.8,35.6,76,30.02,10.0,NW,16.1,25.3,N/A,Rain,Light Rain,320,2013-02-16 01:39:00
8:55 PM,41.2,36.3,83,30.02,10.0,NNW,10.4,19.6,0.00,Rain,Light Rain,330,2013-02-16 01:55:00
8:58 PM,41.0,35.6,81,30.02,10.0,NNW,12.7,17.3,N/A,Rain,Light Rain,330,2013-02-16 01:58:00
9:06 PM,41.0,35.6,81,30.03,10.0,NW,15.0,21.9,N/A,Rain,Light Rain,320,2013-02-16 02:06:00
9:48 PM,39.2,35.6,87,30.04,10.0,NW,15.0,18.4,N/A,Rain,Light Rain,320,2013-02-16 02:48:00
9:55 PM,38.7,35.1,87,30.05,10.0,NW,12.7,-,0.00,Rain,Light Rain,310,2013-02-16 02:55:00
10:04 PM,39.2,35.6,87,30.05,10.0,NW,8.1,-,N/A,Rain,Light Rain,310,2013-02-16 03:04:00
10:12 PM,37.4,35.6,93,30.06,9.0,Calm,Calm,-,N/A,Rain,Light Rain,0,2013-02-16 03:12:00
10:24 PM,37.4,35.6,93,30.06,9.0,North,5.8,-,N/A,Rain,Light Rain,360,2013-02-16 03:24:00
10:55 PM,37.2,34.9,91,30.06,10.0,Calm,Calm,-,0.04,Rain,Light Rain,0,2013-02-16 03:55:00
11:06 PM,37.4,35.6,93,30.06,10.0,NW,3.5,-,N/A,Rain,Light Rain,320,2013-02-16 04:06:00
11:25 PM,37.4,35.6,93,30.05,10.0,Calm,Calm,-,N/A,Rain,Light Rain,0,2013-02-16 04:25:00
11:55 PM,36.5,34.9,94,30.04,9.0,Calm,Calm,-,0.02,Rain,Light Rain,0,2013-02-16 04:55:00